Home   Weather   Fort Bragg   Past weeks

Flag for USA Past Weather in Fort Bragg, California, USA — Yesterday and Last 2 Weeks

Now
49 °F

Light rain. Overcast.


Feels Like: 45 °F
Forecast: 45 / 49 °F
Wind: 10 mph from Southeast

Location: Ukiah Municipal

Current Time: Jan 22, 2017 at 2:30:29 pm

Latest Report: Jan 22, 2017 at 1:56 pm


Visibility: 10 mi

Pressure: 29.63 "Hg

Humidity: 69%

Dew Point: 39 °F

Location of Fort BraggLocation

Past Weather in Fort Bragg — Graph

°F

Fort Bragg Temperature Yesterday

Maximum temperature yesterday: 52 °F (at 12:56 pm)
Minimum temperature yesterday: 44 °F (at 12:56 am)
Average temperature yesterday: 46 °F

High & Low Weather Summary for the Past Weeks

 TemperatureHumidityPressure
High62 °F (Jan 16, 2:56 pm)100% (Jan 7, 2:56 pm)30.26 "Hg (Jan 7, 2:56 pm)
Low34 °F (Jan 16, 12:35 am)41% (Jan 16, 2:56 pm)29.23 "Hg (Jan 20, 1:56 pm)
Average46 °F90%29.87 "Hg
* Reported Jan 7 12:56 pm — Jan 22 12:56 pm, Fort Bragg, Weather by CustomWeather, © 2017

Note: Actual official high and low records may vary slightly from our data, if they occured in-between our weather recording intervals... More about our weather records

Advertising

Fort Bragg Weather History for the Previous 24 Hours

Scroll right to see more
 ConditionsComfort  
Time TempWeatherWind HumidityBarometerVisibility
12:56 pm
Sun, Jan 22
50 °FPassing clouds.7 mph74%29.66 "Hg10 mi
11:56 am50 °FBroken clouds.12 mph74%29.70 "Hg10 mi
10:56 am49 °FBroken clouds.9 mph86%29.73 "Hg10 mi
10:30 am46 °FBroken clouds.3 mph93%29.74 "Hg10 mi
9:56 am45 °FLow clouds.No wind93%29.73 "Hg10 mi
9:31 am45 °FLow clouds.No wind90%29.73 "Hg10 mi
8:56 am44 °FLow clouds.No wind96%29.71 "Hg10 mi
7:56 am42 °FLow clouds.No wind96%29.68 "Hg10 mi
7:35 am42 °FBroken clouds.No wind96%29.68 "Hg10 mi
6:56 am42 °FPassing clouds.No wind92%29.66 "Hg10 mi
5:56 am43 °FOvercast.No wind97%29.64 "Hg10 mi
5:38 am43 °FLight rain. Mostly cloudy.No wind97%29.64 "Hg10 mi
4:56 am43 °FMostly cloudy.No wind100%29.60 "Hg10 mi
3:56 am44 °FRain. Fog.3 mph93%29.58 "Hg5 mi
3:26 am44 °FRain. Fog.6 mph93%29.60 "Hg5 mi
3:06 am45 °FRain. Fog.6 mph90%29.61 "Hg4 mi
2:25 am46 °FRain. Fog.6 mph89%29.58 "Hg4 mi
1:56 am46 °FRain. Fog.14 mph89%29.57 "Hg5 mi
12:56 am45 °FRain. Fog.10 mph86%29.61 "Hg5 mi
11:56 pm
Sat, Jan 21
45 °FRain. Fog.15 mph86%29.65 "Hg5 mi
10:56 pm44 °FRain. Fog.10 mph89%29.69 "Hg6 mi
9:56 pm45 °FRain. Fog.16 mph86%29.72 "Hg6 mi
8:56 pm45 °FRain. Mostly cloudy.12 mph90%29.73 "Hg7 mi
8:28 pm46 °FRain. Fog.13 mph89%29.75 "Hg5 mi
7:56 pm46 °FRain. Fog.14 mph89%29.75 "Hg6 mi
7:22 pm46 °FRain. Fog.9 mph89%29.76 "Hg6 mi
6:56 pm46 °FRain. Fog.12 mph89%29.77 "Hg5 mi
6:17 pm47 °FLight rain. Mostly cloudy.10 mph90%29.77 "Hg8 mi
5:56 pm47 °FLight rain. Mostly cloudy.10 mph86%29.76 "Hg8 mi
4:56 pm48 °FMore clouds than sun.7 mph86%29.78 "Hg10 mi
3:56 pm49 °FMostly cloudy.5 mph80%29.78 "Hg10 mi
2:56 pm50 °FLight rain. Mostly cloudy.12 mph80%29.78 "Hg8 mi
2:06 pm51 °FPartly sunny.10 mph74%29.77 "Hg10 mi
Weather by CustomWeather, © 2017

See weather overviewHow to use our weather pages